owner,sensor,date,latitude,longitude,vertical_datum,wind_speed,wind_to_direction,wind_speed_of_gust,qcFlag 
DISL,ioos:station:DISL:DISL:1,2009-04-01T00:00:00Z,30.2513,-88.0778,9.68,5.12,180.2,-9999.0,'1111122,1111122,1111122' 
DISL,ioos:station:DISL:DISL:1,2009-04-01T00:30:00Z,30.2513,-88.0778,9.68,3.42,177.1,-9999.0,'1111122,1111122,1111122' 
DISL,ioos:station:DISL:DISL:1,2009-04-01T01:00:00Z,30.2513,-88.0778,9.68,2.48,167.0,-9999.0,'1111122,1111122,1111122' 
DISL,ioos:station:DISL:DISL:1,2009-04-01T01:30:00Z,30.2513,-88.0778,9.68,3.95,159.9,-9999.0,'1111122,1111122,1111122' 
DISL,ioos:station:DISL:DISL:1,2009-04-01T02:00:00Z,30.2513,-88.0778,9.68,3.6,166.5,-9999.0,'1111122,1111122,1111122' 
DISL,ioos:station:DISL:DISL:1,2009-04-01T02:30:00Z,30.2513,-88.0778,9.68,3.85,152.6,-9999.0,'1111122,1111122,1111122' 
DISL,ioos:station:DISL:DISL:1,2009-04-01T03:00:00Z,30.2513,-88.0778,9.68,3.98,155.4,-9999.0,'1111122,1111122,1111122' 
DISL,ioos:station:DISL:DISL:1,2009-04-01T03:30:00Z,30.2513,-88.0778,9.68,3.39,158.2,-9999.0,'1111122,1111122,1111122' 
DISL,ioos:station:DISL:DISL:1,2009-04-01T04:00:00Z,30.2513,-88.0778,9.68,1.67,175.7,-9999.0,'1111122,1111122,1111122' 
DISL,ioos:station:DISL:DISL:1,2009-04-01T04:30:00Z,30.2513,-88.0778,9.68,1.34,193.8,-9999.0,'1111122,1111122,1111122' 
DISL,ioos:station:DISL:DISL:1,2009-04-01T05:00:00Z,30.2513,-88.0778,9.68,1.95,207.4,-9999.0,'1111122,1111122,1111122' 
DISL,ioos:station:DISL:DISL:1,2009-04-01T05:30:00Z,30.2513,-88.0778,9.68,2.35,201.6,-9999.0,'1111122,1111122,1111122' 
DISL,ioos:station:DISL:DISL:1,2009-04-01T06:00:00Z,30.2513,-88.0778,9.68,2.73,237.0,-9999.0,'1111122,1111122,1111122' 
DISL,ioos:station:DISL:DISL:1,2009-04-01T06:30:00Z,30.2513,-88.0778,9.68,2.24,234.3,-9999.0,'1111122,1111122,1111122' 
DISL,ioos:station:DISL:DISL:1,2009-04-01T07:00:00Z,30.2513,-88.0778,9.68,1.53,232.0,-9999.0,'1111122,1111122,1111122' 
DISL,ioos:station:DISL:DISL:1,2009-04-01T07:30:00Z,30.2513,-88.0778,9.68,1.83,189.2,-9999.0,'1111122,1111122,1111122' 
DISL,ioos:station:DISL:DISL:1,2009-04-01T08:00:00Z,30.2513,-88.0778,9.68,1.79,203.6,-9999.0,'1111122,1111122,1111122' 
DISL,ioos:station:DISL:DISL:1,2009-04-01T08:30:00Z,30.2513,-88.0778,9.68,2.65,225.0,-9999.0,'1111122,1111122,1111122' 
DISL,ioos:station:DISL:DISL:1,2009-04-01T09:00:00Z,30.2513,-88.0778,9.68,1.82,234.8,-9999.0,'1111122,1111122,1111122' 
DISL,ioos:station:DISL:DISL:1,2009-04-01T09:30:00Z,30.2513,-88.0778,9.68,0.9,137.7,-9999.0,'1111122,1111122,1111122' 
DISL,ioos:station:DISL:DISL:1,2009-04-01T10:00:00Z,30.2513,-88.0778,9.68,3.44,310.6,-9999.0,'1111122,1111122,1111122' 
DISL,ioos:station:DISL:DISL:1,2009-04-01T10:30:00Z,30.2513,-88.0778,9.68,5.44,333.2,-9999.0,'1111122,1111122,1111122' 
DISL,ioos:station:DISL:DISL:1,2009-04-01T11:00:00Z,30.2513,-88.0778,9.68,7.45,342.8,-9999.0,'1111122,1111122,1111122' 
DISL,ioos:station:DISL:DISL:1,2009-04-01T11:30:00Z,30.2513,-88.0778,9.68,11.26,348.0,-9999.0,'1111122,1111122,1111122' 
DISL,ioos:station:DISL:DISL:1,2009-04-01T12:00:00Z,30.2513,-88.0778,9.68,13.26,353.1,-9999.0,'1111122,1111122,1111122' 
DISL,ioos:station:DISL:DISL:1,2009-04-01T12:30:00Z,30.2513,-88.0778,9.68,12.68,0.308,-9999.0,'1111122,1111122,1111122' 
DISL,ioos:station:DISL:DISL:1,2009-04-01T13:00:00Z,30.2513,-88.0778,9.68,12.88,5.478,-9999.0,'1111122,1111122,1111122' 
DISL,ioos:station:DISL:DISL:1,2009-04-01T13:30:00Z,30.2513,-88.0778,9.68,12.27,8.86,-9999.0,'1111122,1111122,1111122' 
DISL,ioos:station:DISL:DISL:1,2009-04-01T14:00:00Z,30.2513,-88.0778,9.68,12.13,12.99,-9999.0,'1111122,1111122,1111122' 
DISL,ioos:station:DISL:DISL:1,2009-04-01T14:30:00Z,30.2513,-88.0778,9.68,11.3,14.67,-9999.0,'1111122,1111122,1111122' 
DISL,ioos:station:DISL:DISL:1,2009-04-01T15:00:00Z,30.2513,-88.0778,9.68,9.4,20.23,-9999.0,'1111122,1111122,1111122' 
DISL,ioos:station:DISL:DISL:1,2009-04-01T15:30:00Z,30.2513,-88.0778,9.68,9.24,23.17,-9999.0,'1111122,1111122,1111122' 
DISL,ioos:station:DISL:DISL:1,2009-04-01T16:00:00Z,30.2513,-88.0778,9.68,9.05,25.17,-9999.0,'1111122,1111122,1111122' 
DISL,ioos:station:DISL:DISL:1,2009-04-01T16:30:00Z,30.2513,-88.0778,9.68,7.47,21.46,-9999.0,'1111122,1111122,1111122' 
DISL,ioos:station:DISL:DISL:1,2009-04-01T17:00:00Z,30.2513,-88.0778,9.68,7.91,18.26,-9999.0,'1111122,1111122,1111122' 
DISL,ioos:station:DISL:DISL:1,2009-04-01T17:30:00Z,30.2513,-88.0778,9.68,5.59,23.23,-9999.0,'1111122,1111122,1111122' 
DISL,ioos:station:DISL:DISL:1,2009-04-01T18:00:00Z,30.2513,-88.0778,9.68,5.21,15.98,-9999.0,'1111122,1111122,1111122' 
DISL,ioos:station:DISL:DISL:1,2009-04-01T18:30:00Z,30.2513,-88.0778,9.68,4.51,355.8,-9999.0,'1111122,1111122,1111122' 
DISL,ioos:station:DISL:DISL:1,2009-04-01T19:00:00Z,30.2513,-88.0778,9.68,4.64,9.01,-9999.0,'1111122,1111122,1111122' 
DISL,ioos:station:DISL:DISL:1,2009-04-01T19:30:00Z,30.2513,-88.0778,9.68,4.03,9.56,-9999.0,'1111122,1111122,1111122' 
DISL,ioos:station:DISL:DISL:1,2009-04-01T20:00:00Z,30.2513,-88.0778,9.68,2.62,27.3,-9999.0,'1111122,1111122,1111122' 
DISL,ioos:station:DISL:DISL:1,2009-04-01T20:30:00Z,30.2513,-88.0778,9.68,1.73,61.79,-9999.0,'1111122,1111122,1111122' 
DISL,ioos:station:DISL:DISL:1,2009-04-01T21:00:00Z,30.2513,-88.0778,9.68,2.0,52.87,-9999.0,'1111122,1111122,1111122' 
DISL,ioos:station:DISL:DISL:1,2009-04-01T21:30:00Z,30.2513,-88.0778,9.68,1.66,357.5,-9999.0,'1111122,1111122,1111122' 
DISL,ioos:station:DISL:DISL:1,2009-04-01T22:00:00Z,30.2513,-88.0778,9.68,1.57,58.92,-9999.0,'1111122,1111122,1111122' 
DISL,ioos:station:DISL:DISL:1,2009-04-01T22:30:00Z,30.2513,-88.0778,9.68,0.89,52.61,-9999.0,'1111122,1111122,1111122' 
DISL,ioos:station:DISL:DISL:1,2009-04-01T23:00:00Z,30.2513,-88.0778,9.68,1.22,338.2,-9999.0,'1111122,1111122,1111122' 
DISL,ioos:station:DISL:DISL:1,2009-04-01T23:30:00Z,30.2513,-88.0778,9.68,2.12,75.7,-9999.0,'1111122,1111122,1111122' 
DISL,ioos:station:DISL:DISL:1,2009-04-02T00:00:00Z,30.2513,-88.0778,9.68,3.93,99.4,-9999.0,'1111122,1111122,1111122' 
DISL,ioos:station:DISL:DISL:1,2009-04-02T00:30:00Z,30.2513,-88.0778,9.68,3.51,93.3,-9999.0,'1111122,1111122,1111122' 
DISL,ioos:station:DISL:DISL:1,2009-04-02T01:00:00Z,30.2513,-88.0778,9.68,4.09,91.5,-9999.0,'1111122,1111122,1111122' 
DISL,ioos:station:DISL:DISL:1,2009-04-02T01:30:00Z,30.2513,-88.0778,9.68,2.97,84.7,-9999.0,'1111122,1111122,1111122' 
DISL,ioos:station:DISL:DISL:1,2009-04-02T02:00:00Z,30.2513,-88.0778,9.68,4.62,104.3,-9999.0,'1111122,1111122,1111122' 
DISL,ioos:station:DISL:DISL:1,2009-04-02T02:30:00Z,30.2513,-88.0778,9.68,2.59,111.5,-9999.0,'1111122,1111122,1111122' 
DISL,ioos:station:DISL:DISL:1,2009-04-02T03:00:00Z,30.2513,-88.0778,9.68,0.7,66.61,-9999.0,'1111122,1111122,1111122' 
DISL,ioos:station:DISL:DISL:1,2009-04-02T03:30:00Z,30.2513,-88.0778,9.68,4.87,113.7,-9999.0,'1111122,1111122,1111122' 
DISL,ioos:station:DISL:DISL:1,2009-04-02T04:00:00Z,30.2513,-88.0778,9.68,2.99,130.3,-9999.0,'1111122,1111122,1111122' 
DISL,ioos:station:DISL:DISL:1,2009-04-02T04:30:00Z,30.2513,-88.0778,9.68,6.3,144.2,-9999.0,'1111122,1111122,1111122' 
DISL,ioos:station:DISL:DISL:1,2009-04-02T05:00:00Z,30.2513,-88.0778,9.68,7.15,151.2,-9999.0,'1111122,1111122,1111122' 
DISL,ioos:station:DISL:DISL:1,2009-04-02T05:30:00Z,30.2513,-88.0778,9.68,5.38,159.1,-9999.0,'1111122,1111122,1111122' 
DISL,ioos:station:DISL:DISL:1,2009-04-02T06:00:00Z,30.2513,-88.0778,9.68,5.02,162.9,-9999.0,'1111122,1111122,1111122' 
DISL,ioos:station:DISL:DISL:1,2009-04-02T06:30:00Z,30.2513,-88.0778,9.68,4.79,174.6,-9999.0,'1111122,1111122,1111122' 
DISL,ioos:station:DISL:DISL:1,2009-04-02T07:00:00Z,30.2513,-88.0778,9.68,4.43,174.0,-9999.0,'1111122,1111122,1111122' 
DISL,ioos:station:DISL:DISL:1,2009-04-02T07:30:00Z,30.2513,-88.0778,9.68,2.34,276.6,-9999.0,'1111122,1111122,1111122' 
DISL,ioos:station:DISL:DISL:1,2009-04-02T08:00:00Z,30.2513,-88.0778,9.68,2.43,232.4,-9999.0,'1111122,1111122,1111122' 
DISL,ioos:station:DISL:DISL:1,2009-04-02T08:30:00Z,30.2513,-88.0778,9.68,1.41,244.5,-9999.0,'1111122,1111122,1111122' 
DISL,ioos:station:DISL:DISL:1,2009-04-02T09:00:00Z,30.2513,-88.0778,9.68,2.6,207.2,-9999.0,'1111122,1111122,1111122' 
DISL,ioos:station:DISL:DISL:1,2009-04-02T09:30:00Z,30.2513,-88.0778,9.68,3.05,196.9,-9999.0,'1111122,1111122,1111122' 
DISL,ioos:station:DISL:DISL:1,2009-04-02T10:00:00Z,30.2513,-88.0778,9.68,2.16,261.9,-9999.0,'1111122,1111122,1111122' 
DISL,ioos:station:DISL:DISL:1,2009-04-02T10:30:00Z,30.2513,-88.0778,9.68,1.65,211.3,-9999.0,'1111122,1111122,1111122' 
DISL,ioos:station:DISL:DISL:1,2009-04-02T11:00:00Z,30.2513,-88.0778,9.68,1.56,168.3,-9999.0,'1111122,1111122,1111122' 
DISL,ioos:station:DISL:DISL:1,2009-04-02T11:30:00Z,30.2513,-88.0778,9.68,1.97,179.7,-9999.0,'1111122,1111122,1111122' 
DISL,ioos:station:DISL:DISL:1,2009-04-02T12:00:00Z,30.2513,-88.0778,9.68,1.89,195.3,-9999.0,'1111122,1111122,1111122' 
DISL,ioos:station:DISL:DISL:1,2009-04-02T12:30:00Z,30.2513,-88.0778,9.68,1.77,148.8,-9999.0,'1111122,1111122,1111122' 
DISL,ioos:station:DISL:DISL:1,2009-04-02T13:00:00Z,30.2513,-88.0778,9.68,11.5,177.8,-9999.0,'1111122,1111122,1111122' 
DISL,ioos:station:DISL:DISL:1,2009-04-02T13:30:00Z,30.2513,-88.0778,9.68,3.15,217.4,-9999.0,'1111122,1111122,1111122' 
DISL,ioos:station:DISL:DISL:1,2009-04-02T14:00:00Z,30.2513,-88.0778,9.68,2.04,202.6,-9999.0,'1111122,1111122,1111122' 
DISL,ioos:station:DISL:DISL:1,2009-04-02T14:30:00Z,30.2513,-88.0778,9.68,3.69,147.3,-9999.0,'1111122,1111122,1111122' 
DISL,ioos:station:DISL:DISL:1,2009-04-02T15:00:00Z,30.2513,-88.0778,9.68,6.32,114.4,-9999.0,'1111122,1111122,1111122' 
DISL,ioos:station:DISL:DISL:1,2009-04-02T15:30:00Z,30.2513,-88.0778,9.68,8.38,123.7,-9999.0,'1111122,1111122,1111122' 
DISL,ioos:station:DISL:DISL:1,2009-04-02T16:00:00Z,30.2513,-88.0778,9.68,8.8,135.4,-9999.0,'1111122,1111122,1111122' 
DISL,ioos:station:DISL:DISL:1,2009-04-02T16:30:00Z,30.2513,-88.0778,9.68,7.76,137.9,-9999.0,'1111122,1111122,1111122' 
DISL,ioos:station:DISL:DISL:1,2009-04-02T17:00:00Z,30.2513,-88.0778,9.68,8.27,131.9,-9999.0,'1111122,1111122,1111122' 
DISL,ioos:station:DISL:DISL:1,2009-04-02T17:30:00Z,30.2513,-88.0778,9.68,7.62,134.1,-9999.0,'1111122,1111122,1111122' 
DISL,ioos:station:DISL:DISL:1,2009-04-02T18:00:00Z,30.2513,-88.0778,9.68,7.13,134.0,-9999.0,'1111122,1111122,1111122' 
DISL,ioos:station:DISL:DISL:1,2009-04-02T18:30:00Z,30.2513,-88.0778,9.68,11.15,128.7,-9999.0,'1111122,1111122,1111122' 
DISL,ioos:station:DISL:DISL:1,2009-04-02T19:00:00Z,30.2513,-88.0778,9.68,10.41,135.4,-9999.0,'1111122,1111122,1111122' 
DISL,ioos:station:DISL:DISL:1,2009-04-02T19:30:00Z,30.2513,-88.0778,9.68,10.08,134.8,-9999.0,'1111122,1111122,1111122' 
DISL,ioos:station:DISL:DISL:1,2009-04-02T20:00:00Z,30.2513,-88.0778,9.68,7.56,143.5,-9999.0,'1111122,1111122,1111122' 
DISL,ioos:station:DISL:DISL:1,2009-04-02T20:30:00Z,30.2513,-88.0778,9.68,5.91,150.0,-9999.0,'1111122,1111122,1111122' 
DISL,ioos:station:DISL:DISL:1,2009-04-02T21:00:00Z,30.2513,-88.0778,9.68,6.53,141.7,-9999.0,'1111122,1111122,1111122' 
DISL,ioos:station:DISL:DISL:1,2009-04-02T21:30:00Z,30.2513,-88.0778,9.68,4.83,260.7,-9999.0,'1111122,1111122,1111122' 
DISL,ioos:station:DISL:DISL:1,2009-04-02T22:00:00Z,30.2513,-88.0778,9.68,2.85,232.0,-9999.0,'1111122,1111122,1111122' 
DISL,ioos:station:DISL:DISL:1,2009-04-02T22:30:00Z,30.2513,-88.0778,9.68,2.43,224.7,-9999.0,'1111122,1111122,1111122' 
DISL,ioos:station:DISL:DISL:1,2009-04-02T23:00:00Z,30.2513,-88.0778,9.68,2.81,233.6,-9999.0,'1111122,1111122,1111122' 
DISL,ioos:station:DISL:DISL:1,2009-04-02T23:30:00Z,30.2513,-88.0778,9.68,2.42,217.9,-9999.0,'1111122,1111122,1111122' 
DISL,ioos:station:DISL:DISL:1,2009-04-03T00:00:00Z,30.2513,-88.0778,9.68,2.31,217.5,-9999.0,'1111122,1111122,1111122' 
DISL,ioos:station:DISL:DISL:1,2009-04-03T00:30:00Z,30.2513,-88.0778,9.68,3.03,222.2,-9999.0,'1111122,1111122,1111122' 
DISL,ioos:station:DISL:DISL:1,2009-04-03T01:00:00Z,30.2513,-88.0778,9.68,2.9,228.9,-9999.0,'1111122,1111122,1111122' 
DISL,ioos:station:DISL:DISL:1,2009-04-03T01:30:00Z,30.2513,-88.0778,9.68,3.53,241.8,-9999.0,'1111122,1111122,1111122' 
DISL,ioos:station:DISL:DISL:1,2009-04-03T02:00:00Z,30.2513,-88.0778,9.68,3.51,253.9,-9999.0,'1111122,1111122,1111122' 
DISL,ioos:station:DISL:DISL:1,2009-04-03T02:30:00Z,30.2513,-88.0778,9.68,3.61,252.9,-9999.0,'1111122,1111122,1111122' 
DISL,ioos:station:DISL:DISL:1,2009-04-03T03:00:00Z,30.2513,-88.0778,9.68,3.44,234.5,-9999.0,'1111122,1111122,1111122' 
DISL,ioos:station:DISL:DISL:1,2009-04-03T03:30:00Z,30.2513,-88.0778,9.68,3.31,253.3,-9999.0,'1111122,1111122,1111122' 
DISL,ioos:station:DISL:DISL:1,2009-04-03T04:00:00Z,30.2513,-88.0778,9.68,3.77,245.4,-9999.0,'1111122,1111122,1111122' 
DISL,ioos:station:DISL:DISL:1,2009-04-03T04:30:00Z,30.2513,-88.0778,9.68,4.01,247.6,-9999.0,'1111122,1111122,1111122' 
DISL,ioos:station:DISL:DISL:1,2009-04-03T05:00:00Z,30.2513,-88.0778,9.68,4.39,252.6,-9999.0,'1111122,1111122,1111122' 
DISL,ioos:station:DISL:DISL:1,2009-04-03T05:30:00Z,30.2513,-88.0778,9.68,5.41,269.6,-9999.0,'1111122,1111122,1111122' 
DISL,ioos:station:DISL:DISL:1,2009-04-03T06:00:00Z,30.2513,-88.0778,9.68,5.37,277.2,-9999.0,'1111122,1111122,1111122' 
DISL,ioos:station:DISL:DISL:1,2009-04-03T06:30:00Z,30.2513,-88.0778,9.68,6.98,278.9,-9999.0,'1111122,1111122,1111122' 
DISL,ioos:station:DISL:DISL:1,2009-04-03T07:00:00Z,30.2513,-88.0778,9.68,7.88,291.4,-9999.0,'1111122,1111122,1111122' 
DISL,ioos:station:DISL:DISL:1,2009-04-03T07:30:00Z,30.2513,-88.0778,9.68,8.34,289.9,-9999.0,'1111122,1111122,1111122' 
DISL,ioos:station:DISL:DISL:1,2009-04-03T08:00:00Z,30.2513,-88.0778,9.68,8.62,297.7,-9999.0,'1111122,1111122,1111122' 
DISL,ioos:station:DISL:DISL:1,2009-04-03T08:30:00Z,30.2513,-88.0778,9.68,6.28,296.7,-9999.0,'1111122,1111122,1111122' 
DISL,ioos:station:DISL:DISL:1,2009-04-03T09:00:00Z,30.2513,-88.0778,9.68,8.27,296.0,-9999.0,'1111122,1111122,1111122' 
DISL,ioos:station:DISL:DISL:1,2009-04-03T09:30:00Z,30.2513,-88.0778,9.68,7.09,297.7,-9999.0,'1111122,1111122,1111122' 
DISL,ioos:station:DISL:DISL:1,2009-04-03T10:00:00Z,30.2513,-88.0778,9.68,6.55,292.4,-9999.0,'1111122,1111122,1111122' 
DISL,ioos:station:DISL:DISL:1,2009-04-03T10:30:00Z,30.2513,-88.0778,9.68,7.08,293.5,-9999.0,'1111122,1111122,1111122' 
DISL,ioos:station:DISL:DISL:1,2009-04-03T11:00:00Z,30.2513,-88.0778,9.68,7.09,294.1,-9999.0,'1111122,1111122,1111122' 
DISL,ioos:station:DISL:DISL:1,2009-04-03T11:30:00Z,30.2513,-88.0778,9.68,7.69,295.3,-9999.0,'1111122,1111122,1111122' 
DISL,ioos:station:DISL:DISL:1,2009-04-03T12:00:00Z,30.2513,-88.0778,9.68,7.47,291.6,-9999.0,'1111122,1111122,1111122' 
DISL,ioos:station:DISL:DISL:1,2009-04-03T12:30:00Z,30.2513,-88.0778,9.68,7.04,299.5,-9999.0,'1111122,1111122,1111122' 
DISL,ioos:station:DISL:DISL:1,2009-04-03T13:00:00Z,30.2513,-88.0778,9.68,6.9,298.0,-9999.0,'1111122,1111122,1111122' 
DISL,ioos:station:DISL:DISL:1,2009-04-03T13:30:00Z,30.2513,-88.0778,9.68,7.11,301.2,-9999.0,'1111122,1111122,1111122' 
DISL,ioos:station:DISL:DISL:1,2009-04-03T14:00:00Z,30.2513,-88.0778,9.68,6.68,304.9,-9999.0,'1111122,1111122,1111122' 
DISL,ioos:station:DISL:DISL:1,2009-04-03T14:30:00Z,30.2513,-88.0778,9.68,5.43,301.3,-9999.0,'1111122,1111122,1111122' 
DISL,ioos:station:DISL:DISL:1,2009-04-03T15:00:00Z,30.2513,-88.0778,9.68,4.52,305.6,-9999.0,'1111122,1111122,1111122' 
DISL,ioos:station:DISL:DISL:1,2009-04-03T15:30:00Z,30.2513,-88.0778,9.68,3.28,318.6,-9999.0,'1111122,1111122,1111122' 
DISL,ioos:station:DISL:DISL:1,2009-04-03T16:00:00Z,30.2513,-88.0778,9.68,3.0,324.6,-9999.0,'1111122,1111122,1111122' 
DISL,ioos:station:DISL:DISL:1,2009-04-03T16:30:00Z,30.2513,-88.0778,9.68,2.3,292.5,-9999.0,'1111122,1111122,1111122' 
DISL,ioos:station:DISL:DISL:1,2009-04-03T17:00:00Z,30.2513,-88.0778,9.68,2.41,278.3,-9999.0,'1111122,1111122,1111122' 
DISL,ioos:station:DISL:DISL:1,2009-04-03T17:30:00Z,30.2513,-88.0778,9.68,1.8,289.6,-9999.0,'1111122,1111122,1111122' 
DISL,ioos:station:DISL:DISL:1,2009-04-03T18:00:00Z,30.2513,-88.0778,9.68,2.56,298.6,-9999.0,'1111122,1111122,1111122' 
DISL,ioos:station:DISL:DISL:1,2009-04-03T18:30:00Z,30.2513,-88.0778,9.68,1.73,297.8,-9999.0,'1111122,1111122,1111122' 
DISL,ioos:station:DISL:DISL:1,2009-04-03T19:00:00Z,30.2513,-88.0778,9.68,2.09,228.6,-9999.0,'1111122,1111122,1111122' 
DISL,ioos:station:DISL:DISL:1,2009-04-03T19:30:00Z,30.2513,-88.0778,9.68,2.99,213.4,-9999.0,'1111122,1111122,1111122' 
DISL,ioos:station:DISL:DISL:1,2009-04-03T20:00:00Z,30.2513,-88.0778,9.68,3.08,215.8,-9999.0,'1111122,1111122,1111122' 
DISL,ioos:station:DISL:DISL:1,2009-04-03T20:30:00Z,30.2513,-88.0778,9.68,3.45,205.0,-9999.0,'1111122,1111122,1111122' 
DISL,ioos:station:DISL:DISL:1,2009-04-03T21:00:00Z,30.2513,-88.0778,9.68,2.88,204.3,-9999.0,'1111122,1111122,1111122' 
DISL,ioos:station:DISL:DISL:1,2009-04-03T21:30:00Z,30.2513,-88.0778,9.68,3.22,201.8,-9999.0,'1111122,1111122,1111122' 
DISL,ioos:station:DISL:DISL:1,2009-04-03T22:00:00Z,30.2513,-88.0778,9.68,3.3,201.4,-9999.0,'1111122,1111122,1111122' 
DISL,ioos:station:DISL:DISL:1,2009-04-03T22:30:00Z,30.2513,-88.0778,9.68,2.93,206.5,-9999.0,'1111122,1111122,1111122' 
DISL,ioos:station:DISL:DISL:1,2009-04-03T23:00:00Z,30.2513,-88.0778,9.68,1.96,211.4,-9999.0,'1111122,1111122,1111122' 
DISL,ioos:station:DISL:DISL:1,2009-04-03T23:30:00Z,30.2513,-88.0778,9.68,1.98,237.7,-9999.0,'1111122,1111122,1111122' 
DISL,ioos:station:DISL:DISL:1,2009-04-04T00:00:00Z,30.2513,-88.0778,9.68,1.36,257.4,-9999.0,'1111122,1111122,1111122' 
DISL,ioos:station:DISL:DISL:1,2009-04-04T00:30:00Z,30.2513,-88.0778,9.68,1.85,240.1,-9999.0,'1111122,1111122,1111122' 
DISL,ioos:station:DISL:DISL:1,2009-04-04T01:00:00Z,30.2513,-88.0778,9.68,2.26,247.2,-9999.0,'1111122,1111122,1111122' 
DISL,ioos:station:DISL:DISL:1,2009-04-04T01:30:00Z,30.2513,-88.0778,9.68,2.03,251.1,-9999.0,'1111122,1111122,1111122' 
DISL,ioos:station:DISL:DISL:1,2009-04-04T02:00:00Z,30.2513,-88.0778,9.68,1.98,261.5,-9999.0,'1111122,1111122,1111122' 
DISL,ioos:station:DISL:DISL:1,2009-04-04T02:30:00Z,30.2513,-88.0778,9.68,2.28,260.4,-9999.0,'1111122,1111122,1111122' 
DISL,ioos:station:DISL:DISL:1,2009-04-04T03:00:00Z,30.2513,-88.0778,9.68,1.85,252.9,-9999.0,'1111122,1111122,1111122' 
DISL,ioos:station:DISL:DISL:1,2009-04-04T03:30:00Z,30.2513,-88.0778,9.68,2.69,265.1,-9999.0,'1111122,1111122,1111122' 
DISL,ioos:station:DISL:DISL:1,2009-04-04T04:00:00Z,30.2513,-88.0778,9.68,2.06,257.5,-9999.0,'1111122,1111122,1111122' 
DISL,ioos:station:DISL:DISL:1,2009-04-04T04:30:00Z,30.2513,-88.0778,9.68,1.61,255.1,-9999.0,'1111122,1111122,1111122' 
DISL,ioos:station:DISL:DISL:1,2009-04-04T05:00:00Z,30.2513,-88.0778,9.68,1.21,268.7,-9999.0,'1111122,1111122,1111122' 
DISL,ioos:station:DISL:DISL:1,2009-04-04T05:30:00Z,30.2513,-88.0778,9.68,0.63,278.5,-9999.0,'1111122,1111122,1111122' 
DISL,ioos:station:DISL:DISL:1,2009-04-04T06:00:00Z,30.2513,-88.0778,9.68,1.08,287.5,-9999.0,'1111122,1111122,1111122' 
DISL,ioos:station:DISL:DISL:1,2009-04-04T06:30:00Z,30.2513,-88.0778,9.68,3.32,19.19,-9999.0,'1111122,1111122,1111122' 
DISL,ioos:station:DISL:DISL:1,2009-04-04T07:00:00Z,30.2513,-88.0778,9.68,3.84,38.96,-9999.0,'1111122,1111122,1111122' 
DISL,ioos:station:DISL:DISL:1,2009-04-04T07:30:00Z,30.2513,-88.0778,9.68,4.14,50.83,-9999.0,'1111122,1111122,1111122' 
DISL,ioos:station:DISL:DISL:1,2009-04-04T08:00:00Z,30.2513,-88.0778,9.68,4.86,63.55,-9999.0,'1111122,1111122,1111122' 
DISL,ioos:station:DISL:DISL:1,2009-04-04T08:30:00Z,30.2513,-88.0778,9.68,6.99,70.5,-9999.0,'1111122,1111122,1111122' 
DISL,ioos:station:DISL:DISL:1,2009-04-04T09:00:00Z,30.2513,-88.0778,9.68,6.91,75.0,-9999.0,'1111122,1111122,1111122' 
DISL,ioos:station:DISL:DISL:1,2009-04-04T09:30:00Z,30.2513,-88.0778,9.68,6.99,72.0,-9999.0,'1111122,1111122,1111122' 
DISL,ioos:station:DISL:DISL:1,2009-04-04T10:00:00Z,30.2513,-88.0778,9.68,6.94,76.2,-9999.0,'1111122,1111122,1111122' 
DISL,ioos:station:DISL:DISL:1,2009-04-04T10:30:00Z,30.2513,-88.0778,9.68,6.71,82.5,-9999.0,'1111122,1111122,1111122' 
DISL,ioos:station:DISL:DISL:1,2009-04-04T11:00:00Z,30.2513,-88.0778,9.68,6.48,81.4,-9999.0,'1111122,1111122,1111122' 
DISL,ioos:station:DISL:DISL:1,2009-04-04T11:30:00Z,30.2513,-88.0778,9.68,6.53,80.6,-9999.0,'1111122,1111122,1111122' 
DISL,ioos:station:DISL:DISL:1,2009-04-04T12:00:00Z,30.2513,-88.0778,9.68,6.8,81.5,-9999.0,'1111122,1111122,1111122' 
DISL,ioos:station:DISL:DISL:1,2009-04-04T12:30:00Z,30.2513,-88.0778,9.68,6.38,89.9,-9999.0,'1111122,1111122,1111122' 
DISL,ioos:station:DISL:DISL:1,2009-04-04T13:00:00Z,30.2513,-88.0778,9.68,6.18,91.9,-9999.0,'1111122,1111122,1111122' 
DISL,ioos:station:DISL:DISL:1,2009-04-04T13:30:00Z,30.2513,-88.0778,9.68,5.61,89.9,-9999.0,'1111122,1111122,1111122' 
DISL,ioos:station:DISL:DISL:1,2009-04-04T14:00:00Z,30.2513,-88.0778,9.68,5.21,93.2,-9999.0,'1111122,1111122,1111122' 
DISL,ioos:station:DISL:DISL:1,2009-04-04T14:30:00Z,30.2513,-88.0778,9.68,6.39,99.6,-9999.0,'1111122,1111122,1111122' 
DISL,ioos:station:DISL:DISL:1,2009-04-04T15:00:00Z,30.2513,-88.0778,9.68,7.73,95.4,-9999.0,'1111122,1111122,1111122' 
DISL,ioos:station:DISL:DISL:1,2009-04-04T15:30:00Z,30.2513,-88.0778,9.68,7.83,90.0,-9999.0,'1111122,1111122,1111122' 
DISL,ioos:station:DISL:DISL:1,2009-04-04T16:00:00Z,30.2513,-88.0778,9.68,8.16,89.2,-9999.0,'1111122,1111122,1111122' 
DISL,ioos:station:DISL:DISL:1,2009-04-04T16:30:00Z,30.2513,-88.0778,9.68,7.83,95.4,-9999.0,'1111122,1111122,1111122' 
DISL,ioos:station:DISL:DISL:1,2009-04-04T17:00:00Z,30.2513,-88.0778,9.68,7.12,99.2,-9999.0,'1111122,1111122,1111122' 
DISL,ioos:station:DISL:DISL:1,2009-04-04T17:30:00Z,30.2513,-88.0778,9.68,7.19,106.7,-9999.0,'1111122,1111122,1111122' 
DISL,ioos:station:DISL:DISL:1,2009-04-04T18:00:00Z,30.2513,-88.0778,9.68,7.54,105.4,-9999.0,'1111122,1111122,1111122' 
DISL,ioos:station:DISL:DISL:1,2009-04-04T18:30:00Z,30.2513,-88.0778,9.68,7.98,111.4,-9999.0,'1111122,1111122,1111122' 
DISL,ioos:station:DISL:DISL:1,2009-04-04T19:00:00Z,30.2513,-88.0778,9.68,7.98,113.1,-9999.0,'1111122,1111122,1111122' 
DISL,ioos:station:DISL:DISL:1,2009-04-04T19:30:00Z,30.2513,-88.0778,9.68,6.76,111.6,-9999.0,'1111122,1111122,1111122' 
DISL,ioos:station:DISL:DISL:1,2009-04-04T20:00:00Z,30.2513,-88.0778,9.68,6.51,112.6,-9999.0,'1111122,1111122,1111122' 
DISL,ioos:station:DISL:DISL:1,2009-04-04T20:30:00Z,30.2513,-88.0778,9.68,6.36,107.8,-9999.0,'1111122,1111122,1111122' 
DISL,ioos:station:DISL:DISL:1,2009-04-04T21:00:00Z,30.2513,-88.0778,9.68,6.48,111.4,-9999.0,'1111122,1111122,1111122' 
DISL,ioos:station:DISL:DISL:1,2009-04-04T21:30:00Z,30.2513,-88.0778,9.68,6.53,109.2,-9999.0,'1111122,1111122,1111122' 
DISL,ioos:station:DISL:DISL:1,2009-04-04T22:00:00Z,30.2513,-88.0778,9.68,6.71,110.9,-9999.0,'1111122,1111122,1111122' 
DISL,ioos:station:DISL:DISL:1,2009-04-04T22:30:00Z,30.2513,-88.0778,9.68,6.9,109.2,-9999.0,'1111122,1111122,1111122' 
DISL,ioos:station:DISL:DISL:1,2009-04-04T23:00:00Z,30.2513,-88.0778,9.68,7.23,105.7,-9999.0,'1111122,1111122,1111122' 
DISL,ioos:station:DISL:DISL:1,2009-04-04T23:30:00Z,30.2513,-88.0778,9.68,7.1,101.8,-9999.0,'1111122,1111122,1111122' 
DISL,ioos:station:DISL:DISL:1,2009-04-05T00:00:00Z,30.2513,-88.0778,9.68,6.57,106.9,-9999.0,'1111122,1111122,1111122' 
DISL,ioos:station:DISL:DISL:1,2009-04-05T00:30:00Z,30.2513,-88.0778,9.68,5.23,111.5,-9999.0,'1111122,1111122,1111122' 
DISL,ioos:station:DISL:DISL:1,2009-04-05T01:00:00Z,30.2513,-88.0778,9.68,4.95,120.2,-9999.0,'1111122,1111122,1111122' 
DISL,ioos:station:DISL:DISL:1,2009-04-05T01:30:00Z,30.2513,-88.0778,9.68,4.78,117.6,-9999.0,'1111122,1111122,1111122' 
DISL,ioos:station:DISL:DISL:1,2009-04-05T02:00:00Z,30.2513,-88.0778,9.68,5.96,110.3,-9999.0,'1111122,1111122,1111122' 
DISL,ioos:station:DISL:DISL:1,2009-04-05T02:30:00Z,30.2513,-88.0778,9.68,5.64,114.0,-9999.0,'1111122,1111122,1111122' 
DISL,ioos:station:DISL:DISL:1,2009-04-05T03:00:00Z,30.2513,-88.0778,9.68,4.84,122.0,-9999.0,'1111122,1111122,1111122' 
DISL,ioos:station:DISL:DISL:1,2009-04-05T03:30:00Z,30.2513,-88.0778,9.68,4.9,126.2,-9999.0,'1111122,1111122,1111122' 
DISL,ioos:station:DISL:DISL:1,2009-04-05T04:00:00Z,30.2513,-88.0778,9.68,5.03,128.8,-9999.0,'1111122,1111122,1111122' 